Regional Weather Roundup
Issued by NWS Sioux Falls, SD

Home | Current Version | Previous Version | Text Only | Print | Product List | Glossary On
Versions: 1 2 3 4 5 6 7 8 9 10 11 12 13 14 15 16 17 18 19 20 21 22 23 24 25 26 27 28 29 30 31 32 33 34 35 36 37 38 39 40 41 42 43 44 45 46 47 48 49 50
000
ASUS43 KFSD 032110
RWRFSD

WEATHER ROUNDUP FOR SE SOUTH DAKOTA/SW MINNESOTA/NW IOWA
NATIONAL WEATHER SERVICE SIOUX FALLS SD
300 PM CST WED MAR 03 2021

NOTE: "FAIR" INDICATES FEW OR NO CLOUDS BELOW 12,000 FEET WITH NO
SIGNIFICANT WEATHER AND OR OBSTRUCTIONS TO VISIBILITY.


SDZ038>040-050-052>070-032200-
SOUTHEAST SOUTH DAKOTA

CITY           SKY/WX    TMP DP  RH WIND       PRES   REMARKS
BROOKINGS      SUNNY     52  42  69 SE6       30.00S
CHAMBERLAIN    NOT AVBL
HURON          SUNNY     63  35  35 S7        29.95F
MITCHELL       MOSUNNY   63  34  33 S9        29.97F
SIOUX FALLS    NOT AVBL
WINNER         MOSUNNY   64  28  25 VRB3      29.95F
YANKTON        SUNNY     65  31  28 S10       29.98S
$$

MNZ071-072-080-081-089-090-097-098-032200-
SOUTHWEST MINNESOTA

CITY           SKY/WX    TMP DP  RH WIND       PRES   REMARKS
FAIRMONT       SUNNY     48  40  73 E6        30.06R
JACKSON        SUNNY     52  41  66 SE6       30.04S
LUVERNE        SUNNY     55  37  50 S5        30.01S
MARSHALL       SUNNY     49  40  71 SE9       30.04S
MONTEVIDEO     PTSUNNY   48  34  57 SE10      30.04S
REDWOOD FALLS  SUNNY     48  35  60 SE7       30.04F
TRACY          SUNNY     51  37  59 SE7       30.03S
WINDOM         SUNNY     52  39  62 E7        30.04R
WORTHINGTON    SUNNY     53  42  66 S9        30.03R
$$

IAZ001>003-012>014-020>022-031-032-NEZ013-014-SDZ071-032200-
NORTHWEST IOWA

CITY           SKY/WX    TMP DP  RH WIND       PRES   REMARKS
CHEROKEE       SUNNY     55  45  67 SE5       30.03S
DENISON        SUNNY     59  39  47 CALM      30.03S
ESTHERVILLE    SUNNY     50  42  74 SE5       30.03S
LE MARS        SUNNY     59  41  51 SE8       30.01R
MAURICE          N/A    N/A N/A N/A MISG        N/A
SHELDON        SUNNY     55  43  62 S9        30.00S
SIOUX CITY     SUNNY     62  43  49 SE7       30.00F
SPENCER        SUNNY     53  40  61 SE6       30.03S
STORM LAKE     SUNNY     54  45  71 S6          N/A
$$

ABBREVIATIONS USED IN REMARKS
   TC - TEMPERATURE IN CELSIUS
  WCI - WIND CHILL INDEX
   HX - HEAT INDEX
  VSB - VISIBILITY




USA.gov is the U.S. government's official web portal to all federal, state and local government web resources and services.